{"data":{"norad_id":63223,"epoch":"2026-09-22T16:33:24.160608Z","epoch_age_seconds":121637,"freshness":"FRESH","line1":"1 63223U 25052P   26265.68986297  .00003682  00000+0  15675-3 0  9991","line2":"2 63223  97.3786 156.9851 0004985 132.7197 227.4461 15.23600799 84717","mean_motion":15.23600799,"eccentricity":0.0004985,"inclination_deg":97.3786,"raan_deg":156.9851,"arg_perigee_deg":132.7197,"mean_anomaly_deg":227.4461,"bstar":0.00015675,"rev_number":8471,"period_min":94.512945972799,"perigee_km":491.56392636024,"apogee_km":498.41643415896,"semimajor_km":6873.1271802596,"source":"CELESTRAK","updated_at":"2026-09-23T09:00:21.901425Z"}}